Pagosa Springs, CO

9:38 AM MDT on September 22, 2017 (GMT -0600)
Pagosa Springs

Weather History for KPSO - October, 2012

Change the Weather History Date:

Monday, October 29, 2012

  Actual Average (KE33) Record (KE33)
Temperature  
Mean Temperature 44 °F -  
Max Temperature 63 °F 48 °F 69 °F (2008)
Min Temperature 24 °F 31 °F 26 °F (1997)
Degree Days  
Heating Degree Days 22    
Moisture  
Dew Point 15 °F    
Average Humidity 37    
Maximum Humidity 68    
Minimum Humidity 13    
Precipitation  
Precipitation 0.00 in - - ()
Sea Level Pressure  
Sea Level Pressure 30.31 in    
Wind  
Wind Speed 2 mph (SW)    
Max Wind Speed 13 mph    
Max Gust Speed 17 mph    
Visibility 10 miles    
Events      
Averages and records for this station are not official NWS values.
T = Trace of Precipitation, MM = Missing Value Source: NWS Daily Summary

Daily Weather History Graph

Daily Weather History Graph

Search for Another Location

Airport or City:

Trip Planner

Search our weather history database for the weather conditions in past years. The results will help you decide how hot, cold, wet, or windy it might be!

Date:

Astronomy

Oct. 29, 2012 Rise Set
Actual Time 7:30 AM MDT 6:12 PM MDT
Civil Twilight 7:03 AM MDT 6:39 PM MDT
Nautical Twilight 6:32 AM MDT 7:10 PM MDT
Astronomical Twilight 6:02 AM MDT 7:40 PM MDT
Moon 6:07 PM MDT (10/29) 7:22 AM MDT (10/29)
Length of Visible Light 11h 36m
Length of Day
10h 42m
Full, 100% of the Moon is Illuminated
Oct 29
Full
Oct 29
Full
Nov 6
Last Quarter
Nov 13
New
Nov 20
First Quarter

Hourly Weather History & Observations

Time (MDT) Temp. Windchill Dew Point Humidity Pressure Visibility Wind Dir Wind Speed Gust Speed Precip Events Conditions
12:15 AM 30.6 °F - 14.4 °F 51% 30.31 in 10.0 mi Calm Calm - N/A   Clear
12:35 AM 30.9 °F - 15.4 °F 53% 30.31 in 10.0 mi Calm Calm - N/A   Clear
12:55 AM 32.0 °F - 14.7 °F 49% 30.31 in 10.0 mi Calm Calm - N/A   Clear
1:15 AM 30.7 °F - 14.5 °F 51% 30.31 in 10.0 mi Calm Calm - N/A   Clear
1:35 AM 33.8 °F - 15.6 °F 47% 30.31 in 10.0 mi Calm Calm - N/A   Clear
1:55 AM 29.5 °F - 15.6 °F 56% 30.32 in 10.0 mi Calm Calm - N/A   Clear
2:15 AM 29.3 °F - 15.1 °F 55% 30.31 in 10.0 mi Calm Calm - N/A   Clear
2:35 AM 31.5 °F - 15.6 °F 52% 30.32 in 10.0 mi Calm Calm - N/A   Clear
2:55 AM 30.2 °F - 16.0 °F 56% 30.32 in 10.0 mi Calm Calm - N/A   Clear
3:15 AM 28.8 °F - 15.4 °F 58% 30.32 in 10.0 mi Calm Calm - N/A   Clear
3:35 AM 30.0 °F - 15.8 °F 56% 30.32 in 10.0 mi Calm Calm - N/A   Clear
3:55 AM 27.3 °F - 15.1 °F 60% 30.31 in 10.0 mi Calm Calm - N/A   Clear
4:15 AM 27.1 °F - 14.5 °F 59% 30.31 in 10.0 mi Calm Calm - N/A   Clear
5:15 AM 27.3 °F - 16.0 °F 62% 30.31 in 10.0 mi Calm Calm - N/A   Clear
5:35 AM 27.3 °F - 16.7 °F 64% 30.31 in 10.0 mi Calm Calm - N/A   Clear
5:55 AM 26.4 °F - 14.9 °F 62% 30.32 in 10.0 mi Calm Calm - N/A   Clear
6:15 AM 28.4 °F - 16.5 °F 61% 30.32 in 10.0 mi Calm Calm - N/A   Clear
6:35 AM 28.2 °F - 17.2 °F 63% 30.32 in 10.0 mi Calm Calm - N/A   Clear
6:55 AM 26.8 °F - 16.2 °F 64% 30.33 in 10.0 mi Calm Calm - N/A   Clear
7:15 AM 25.2 °F - 16.0 °F 68% 30.33 in 10.0 mi Calm Calm - N/A   Clear
7:35 AM 24.8 °F - 15.4 °F 68% 30.33 in 10.0 mi Calm Calm - N/A   Clear
7:55 AM 26.8 °F - 16.3 °F 65% 30.34 in 10.0 mi Calm Calm - N/A   Clear
8:35 AM 33.1 °F - 18.5 °F 55% 30.36 in 10.0 mi Calm Calm - N/A   Clear
8:55 AM 37.2 °F - 18.1 °F 46% 30.36 in 10.0 mi Calm Calm - N/A   Clear
9:15 AM 40.3 °F - 17.4 °F 40% 30.36 in 10.0 mi Calm Calm - N/A   Clear
9:35 AM 43.0 °F - 16.7 °F 35% 30.36 in 10.0 mi Calm Calm - N/A   Clear
9:55 AM 44.8 °F - 16.5 °F 32% 30.36 in 10.0 mi Calm Calm - N/A   Clear
10:15 AM 46.9 °F - 16.7 °F 30% 30.36 in 10.0 mi Calm Calm - N/A   Clear
10:35 AM 49.3 °F - 16.9 °F 28% 30.35 in 10.0 mi Calm Calm - N/A   Clear
11:35 AM 53.8 °F - 15.6 °F 22% 30.36 in 10.0 mi SW 3.5 mph - N/A   Clear
11:55 AM 54.9 °F - 16.3 °F 22% 30.35 in 10.0 mi South 5.8 mph - N/A   Clear
12:15 PM 56.3 °F - 16.2 °F 21% 30.34 in 10.0 mi Calm Calm - N/A   Clear
12:35 PM 57.6 °F - 16.2 °F 20% 30.33 in 10.0 mi SW 4.6 mph - N/A   Clear
12:55 PM 58.3 °F - 16.2 °F 19% 30.32 in 10.0 mi SSW 5.8 mph - N/A   Clear
1:15 PM 59.5 °F - 16.2 °F 18% 30.31 in 10.0 mi SW 9.2 mph - N/A   Clear
1:35 PM 59.7 °F - 16.3 °F 18% 30.30 in 10.0 mi WSW 5.8 mph - N/A   Clear
2:15 PM 61.2 °F - 15.8 °F 17% 30.28 in 10.0 mi WSW 6.9 mph - N/A   Clear
2:35 PM 61.7 °F - 15.8 °F 17% 30.27 in 10.0 mi SW 10.4 mph - N/A   Clear
2:55 PM 61.9 °F - 16.0 °F 17% 30.27 in 10.0 mi WSW 9.2 mph - N/A   Clear
3:15 PM 62.4 °F - 15.6 °F 16% 30.27 in 10.0 mi SSW 11.5 mph - N/A   Clear
3:35 PM 62.8 °F - 14.9 °F 16% 30.26 in 10.0 mi SW 8.1 mph - N/A   Clear
3:55 PM 63.0 °F - 15.3 °F 16% 30.26 in 10.0 mi SW 6.9 mph - N/A   Clear
4:15 PM 62.8 °F - 14.9 °F 16% 30.26 in 10.0 mi SSW 10.4 mph 17.3 mph N/A   Clear
4:35 PM 63.0 °F - 14.2 °F 15% 30.26 in 10.0 mi WSW 11.5 mph 16.1 mph N/A   Clear
4:55 PM 63.3 °F - 12.9 °F 14% 30.26 in 10.0 mi SW 12.7 mph 16.1 mph N/A   Clear
5:15 PM 63.0 °F - 11.5 °F 13% 30.26 in 10.0 mi SW 11.5 mph - N/A   Clear
5:35 PM 61.7 °F - 11.1 °F 14% 30.25 in 10.0 mi SW 5.8 mph - N/A   Clear
5:55 PM 60.8 °F - 11.1 °F 14% 30.26 in 10.0 mi WSW 5.8 mph - N/A   Clear
6:15 PM 59.5 °F - 10.4 °F 14% 30.26 in 10.0 mi SW 5.8 mph - N/A   Clear
6:35 PM 56.8 °F - 10.8 °F 16% 30.27 in 10.0 mi South 4.6 mph - N/A   Clear
6:55 PM 49.5 °F - 11.8 °F 22% 30.27 in 10.0 mi Calm Calm - N/A   Clear
9:35 PM 44.4 °F 42.9 °F 12.7 °F 28% 30.30 in 10.0 mi NNE 3.5 mph - N/A   Clear
9:55 PM 44.4 °F 41.2 °F 12.9 °F 28% 30.31 in 10.0 mi NE 5.8 mph - N/A   Clear
10:15 PM 40.6 °F - 12.2 °F 31% 30.31 in 10.0 mi Calm Calm - N/A   Clear
10:35 PM 38.7 °F - 12.0 °F 34% 30.30 in 10.0 mi Calm Calm - N/A   Clear
10:55 PM 37.4 °F 34.9 °F 12.7 °F 36% 30.30 in 10.0 mi NNE 3.5 mph - N/A   Clear
11:15 PM 36.7 °F 34.1 °F 12.9 °F 38% 30.31 in 10.0 mi West 3.5 mph - N/A   Clear
11:35 PM 37.4 °F - 12.0 °F 35% 30.31 in 10.0 mi Calm Calm - N/A   Clear
11:55 PM 32.5 °F 28.1 °F 12.6 °F 44% 30.31 in 10.0 mi NW 4.6 mph - N/A   Clear